This demonstration page uses our WeatherBlox Daily Observations layout. Learn more.

Left ArrowRight Arrow

30.21309, -93.2044

Hourly Observations for December 1, 2022

Temp ( °F °C ) Dew Point ( °F °C ) Humidity (%) Winds ( mph kmh ) Pressure ( in mb ) Visibility ( mi km ) Precip ( " mm )
12:15 am 00:15 Clear 42 5.8 33 0.6 69 69 ENE 7 11 30.36 1028 10 16 0.00 0.00
12:35 am 00:35 Clear 42 5.8 33 0.6 69 69 ENE 7 11 30.36 1028 10 16 0.00 0.00
12:55 am 00:55 Clear 42 5.8 33 0.5 69 69 NE 9 15 30.35 1028 10 16 0.00 0.00
1:15 am 01:15 Clear 42 5.5 33 0.4 70 70 ENE 9 15 30.35 1028 10 16 0.00 0.00
1:35 am 01:35 Clear 41 5.2 33 0.4 71 71 ENE 7 11 30.36 1028 10 16 0.00 0.00
1:55 am 01:55 Clear 41 5.1 33 0.4 72 72 NE 7 11 30.36 1028 10 16 0.00 0.00
2:15 am 02:15 Clear 41 5.1 33 0.4 72 72 NE 8 13 30.36 1028 10 16 0.00 0.00
2:35 am 02:35 Clear 41 5 33 0.4 72 72 NE 8 13 30.35 1028 10 16 0.00 0.00
2:55 am 02:55 Clear 41 4.9 33 0.4 73 73 NE 9 15 30.36 1028 10 16 0.00 0.00
3:15 am 03:15 Clear 40 4.7 33 0.5 74 74 ENE 7 11 30.37 1028 10 16 0.00 0.00
3:35 am 03:35 Clear 41 4.8 33 0.5 74 74 ENE 9 15 30.37 1028 10 16 0.00 0.00
3:55 am 03:55 Clear 40 4.7 33 0.4 74 74 ENE 9 15 30.37 1028 10 16 0.00 0.00
4:15 am 04:15 Clear 40 4.7 33 0.4 74 74 ENE 10 17 30.36 1028 10 16 0.00 0.00
4:35 am 04:35 Clear 40 4.4 33 0.4 75 75 ENE 8 13 30.36 1028 10 16 0.00 0.00
4:55 am 04:55 Clear 40 4.2 33 0.4 76 76 ENE 7 11 30.37 1028 10 16 0.00 0.00
5:15 am 05:15 Clear 39 4.1 33 0.5 77 77 ENE 7 11 30.38 1029 10 16 0.00 0.00
5:35 am 05:35 Clear 39 4.1 33 0.6 78 78 NE 7 11 30.38 1029 10 16 0.00 0.00
6:00 am 06:00 Clear 39 4 34 1 81 81 ENE 12 19 30.37 1028 10 16 0.00 0.00
6:50 am 06:50 Clear 39 4 34 1 81 81 ENE 7 11 30.40 1029 10 16 0.00 0.00
7:50 am 07:50 Sunny 41 5 34 1 75 75 ENE 12 19 30.41 1030 10 16 0.00 0.00
8:47 am 08:47 Sunny 45 7 30 -1 57 57 ENE 14 22 30.41 1030 10 16 0.00 0.00
9:50 am 09:50 Sunny 48 9 30 -1 49 49 ENE 15 24 30.41 1030 10 16 0.00 0.00
11:47 am 11:47 Sunny 55 13 32 0 41 41 ENE 16 26 30.39 1029 10 16 0.00 0.00
12:49 pm 12:49 Sunny 57 14 34 1 41 41 ESE 9 15 30.35 1028 10 16 0.00 0.00
1:48 pm 13:48 Sunny 57 14 34 1 41 41 SE 5 7 30.34 1027 10 16 0.00 0.00
2:45 pm 14:45 Sunny 59 15 36 2 41 41 ENE 8 13 30.33 1027 10 16 0.00 0.00
3:49 pm 15:49 Sunny 57 14 34 1 41 41 NE 6 9 30.32 1027 10 16 0.00 0.00
4:58 pm 16:58 Sunny 55 13 37 3 51 51 Calm 30.32 1027 10 16 0.00 0.00
5:54 pm 17:54 Clear 54 12 36 2 50 50 ENE 5 7 30.31 1026 10 16 0.00 0.00
6:55 pm 18:55 Clear 48 9 39 4 71 71 Calm 30.31 1026 10 16 0.00 0.00
7:50 pm 19:50 Clear 46 8 39 4 76 76 Calm 30.31 1026 10 16 0.00 0.00
8:53 pm 20:53 Clear 46 8 39 4 76 76 E 6 9 30.31 1026 10 16 0.00 0.00
9:52 pm 21:52 Clear 46 8 39 4 76 76 Calm 30.31 1026 10 16 0.00 0.00
10:15 pm 22:15 Clear 44 6.4 38 3.5 82 82 E 5 7 30.31 1026 10 16 0.00 0.00
10:35 pm 22:35 Clear 45 7 40 4.2 82 82 E 5 7 30.31 1026 10 16 0.00 0.00
10:55 pm 22:55 Clear 46 8 39 3.9 75 75 E 6 9 30.31 1026 10 16 0.00 0.00
11:15 pm 23:15 Clear 46 7.7 40 4.3 79 79 E 8 13 30.29 1026 10 16 0.00 0.00
11:35 pm 23:35 Clear 44 6.9 39 3.9 81 81 E 8 13 30.29 1026 10 16 0.00 0.00
11:55 pm 23:55 Clear 46 8 40 4.6 79 79 E 9 15 30.27 1025 10 16 0.00 0.00

Powered by AerisWeather